Simultaneous Nadir Overpasses (SNOs) Predictions

Prediction of SNOs between METOP-A and TERRA Satellite Orbit:

Table of predicted SNOs for the next 14.0 days since TLE Epoch: 8/12/2013
Index Date (METOP-A) Time (METOP-A) Lat,Lon (METOP-A) SZA (METOP-A ) Date (TERRA) Time (TERRA) Lat,Lon (TERRA) SZA (TERRA ) Distance(km) Time Diff (sec)
1 08/13/2013 17:17:23 -81.30, 147.82 110.44 08/13/2013 17:17:32 -81.30, 147.76 110.44 0.92 9
2 08/13/2013 18:08:03 81.30, -44.58 69.61 08/13/2013 18:06:58 81.31, -44.49 69.59 1.56 65
3 08/16/2013 12:01:35 80.98, 35.64 69.05 08/16/2013 12:02:48 80.62, 37.06 68.93 47.19 73
4 08/16/2013 12:51:46 -81.30,-145.62 109.53 08/16/2013 12:51:48 -81.30,-145.79 109.55 2.71 2
5 08/16/2013 13:42:26 81.31, 21.97 70.52 08/16/2013 13:41:14 81.31, 21.93 70.48 0.73 72
6 08/
